SB KEPS @ AMSAT $ORB22244.N
2Line Orbital Elements 22244.AMSAT
HR AMSAT ORBITAL ELEMENTS FOR AMATEUR SATELLITES IN NASA FORMAT
FROM WA5QGD FORT WORTH,TX September 1, 2022
BID: ORB22244.N
DECODE 2-LINE ELSETS WITH THE FOLLOWING KEY:
1 AAAAAU 00 0 0 BBBBB.BBBBBBBB .CCCCCCCC 00000-0 00000-0 0 DDDZ
2 AAAAA EEE.EEEE FFF.FFFF GGGGGGG HHH.HHHH III.IIII JJ.JJJJJJJJKKKKKZ
KEY: A-CATALOGNUM B-EPOCHTIME C-DECAY D-ELSETNUM E-INCLINATION F-RAAN
G-ECCENTRICITY H-ARGPERIGEE I-MNANOM J-MNMOTION K-ORBITNUM Z-CHECKSUM
TO ALL RADIO AMATEURS BT
AO-07
1 07530U 74089B 22244.41071471 -.00000036 00000-0 63907-4 0 9991
2 07530 101.9118 224.5386 0011816 256.6675 259.3671 12.53656587186985
UO-11
1 14781U 84021B 22244.38807424 .00000429 00000-0 57831-4 0 9999
2 14781 97.6238 228.3878 0009955 75.1036 285.1280 14.83771302 51307
LO-19
1 20442U 90005G 22244.83299116 .00000041 00000-0 31688-4 0 9994
2 20442 98.8013 210.8881 0010859 308.5796 51.4414 14.33080642704104
HUBBLE
1 20580U 90037B 22244.80978684 .00001387 00000-0 70613-4 0 9998
2 20580 28.4708 22.7579 0002714 134.2853 16.6452 15.10806028578047
MET-2/21
1 22782U 93055A 22244.47924788 .00000082 00000-0 60531-4 0 9995
2 22782 82.5503 313.9024 0023356 132.1829 239.1231 13.83857464464524
AO-27
1 22825U 93061C 22244.56188195 .00000027 00000-0 28131-4 0 9993
2 22825 98.8827 277.1913 0008379 182.6558 177.4580 14.30188147509031
IO-26
1 22826U 93061D 22244.35682698 .00000026 00000-0 27586-4 0 9990
2 22826 98.8771 276.8567 0009148 170.2822 189.8538 14.30535981509260
FO-29
1 24278U 96046B 22244.44724107 -.00000021 00000-0 11365-4 0 9995
2 24278 98.5154 257.6798 0351375 86.1441 277.9790 13.53119059285888
NOAA-15
1 25338U 98030A 22244.82253281 .00000065 00000-0 45171-4 0 9999
2 25338 98.6403 273.3446 0011500 77.1393 283.1071 14.26166022264159
GO-32
1 25397U 98043D 22244.81877313 .00000015 00000-0 26230-4 0 9995
2 25397 98.8232 195.5092 0000420 190.6275 169.4894 14.23767677254515
ISS
1 25544U 98067A 22244.73836935 .00006177 00000-0 11609-3 0 9999
2 25544 51.6442 317.3408 0003040 185.3065 320.1738 15.50005474357050
NO-44
1 26931U 01043C 22244.36965890 .00000029 00000-0 42846-4 0 9998
2 26931 67.0496 222.4406 0006481 257.3230 102.7147 14.30727347 92265
SO-50
1 27607U 02058C 22244.12926748 .00000221 00000-0 50756-4 0 9992
2 27607 64.5540 70.3048 0081125 279.9376 79.2577 14.76214454 59751
CO-55
1 27844U 03031E 22244.46399426 .00000158 00000-0 90578-4 0 9996
2 27844 98.6804 251.0073 0008769 238.7028 121.3291 14.22485815994674
CO-57
1 27848U 03031J 22244.45075708 .00000129 00000-0 78116-4 0 9995
2 27848 98.6848 251.4977 0008568 254.8469 105.1762 14.22038517994483
RS-22
1 27939U 03042A 22244.70059827 .00000360 00000-0 72412-4 0 9990
2 27939 98.2030 25.4462 0012136 332.7294 27.3276 14.67439436 12221
NOAA-18
1 28654U 05018A 22244.83667668 .00000129 00000-0 93467-4 0 9998
2 28654 98.9441 315.1951 0015288 114.6862 245.5903 14.12770163890859
CO-58
1 28895U 05043F 22244.29473943 .00000473 00000-0 98338-4 0 9998
2 28895 98.1163 14.5486 0015329 261.7262 98.2203 14.64443653898511
Falconsat-3
1 30776U 07006E 22244.10323849 .00036038 00000-0 45725-3 0 9996
2 30776 35.4292 122.8479 0003486 339.4241 20.6352 15.58394531861377
CO-65
1 32785U 08021C 22244.46585332 .00001470 00000-0 15869-3 0 9990
2 32785 97.6645 212.9430 0012271 349.7430 10.3536 14.89800035777870
AAUSAT2
1 32788U 08021F 22244.39938116 .00001767 00000-0 15449-3 0 9990
2 32788 97.5395 227.0724 0009714 222.2247 137.8228 14.97966387779806
DO-64
1 32789U 08021G 22244.52819184 .00009870 00000-0 52778-3 0 9998
2 32789 97.3366 268.1397 0011749 67.3785 292.8690 15.15206885783543
CO-66
1 32791U 08021J 22244.38619578 .00001353 00000-0 13541-3 0 9993
2 32791 97.6183 218.2800 0011165 301.5857 58.4272 14.92978155778520
RS-30
1 32953U 08025A 22244.83716248 .00000024 00000-0 10000-3 0 9990
2 32953 82.5052 136.4502 0020049 91.4862 268.8514 12.43112722647828
PRISM
1 33493U 09002B 22244.85415018 .00003115 00000-0 25305-3 0 9997
2 33493 98.2341 235.7968 0014551 298.0426 61.9324 15.00356492740447
NOAA-19
1 33591U 09005A 22244.84657962 .00000072 00000-0 63938-4 0 9998
2 33591 99.1430 280.5696 0013417 337.4145 22.6434 14.12603985699237
SRMSAT
1 37841U 11058D 22244.45862183 .00000348 00000-0 46301-4 0 9992
2 37841 19.9712 155.4893 0011998 99.4724 57.7705 14.10768002562218
HRBE
1 37855U 11061F 22244.42695752 .00009438 00000-0 40499-3 0 9994
2 37855 101.7199 43.8224 0150566 194.6156 165.0683 15.13429614592726
RS-40
1 38735U 12041C 22244.58359353 .00000001 00000-0 -63990-4 0 9992
2 38735 82.4752 218.0197 0016340 202.3034 157.7336 12.42586760457977
ZACUBE-1
1 39417U 13066B 22244.43668184 .00001149 00000-0 14526-3 0 9990
2 39417 97.6434 212.5403 0058175 153.9911 206.4246 14.82541177474381
Delfi-N3xt
1 39428U 13066N 22244.32305558 .00001872 00000-0 29211-3 0 9993
2 39428 97.8145 175.4313 0118098 35.8565 325.0496 14.69420577469671
GOMX-1
1 39430U 13066Q 22244.78787198 .00000421 00000-0 83477-4 0 9994
2 39430 97.8026 147.6114 0149043 163.6916 196.9167 14.60320381467431
LO-74
1 39440U 13066AA 22244.39303142 .00000954 00000-0 13559-3 0 9999
2 39440 97.7319 198.7890 0076923 244.7390 114.5836 14.77208678471499
AO-73
1 39444U 13066AE 22244.39698111 .00001386 00000-0 16933-3 0 9995
2 39444 97.6314 214.9191 0057306 141.9647 218.5636 14.83660414472782
SPROUT
1 39770U 14029E 22244.67273587 .00003159 00000-0 32030-3 0 9990
2 39770 97.9498 2.1486 0008074 187.7691 172.3449 14.91615008449027
DTUSAT-2
1 40030U 14033W 22244.79614746 .00000973 00000-0 10629-3 0 9996
2 40030 97.9378 177.8861 0012099 155.1878 204.9923 14.90188575445523
EO-80
1 40032U 14033Y 22244.36692044 .00001219 00000-0 13168-3 0 9993
2 40032 97.9383 177.4694 0011941 157.7184 202.4555 14.90160974444924
HODOYOSHI-1
1 40299U 14070B 22244.81217759 .00003046 00000-0 11571-3 0 9991
2 40299 97.2378 310.6994 0011016 220.2103 277.4525 15.27509931434716
FIREBIRD FU3
1 40377U 15003B 22244.45586676 .00011972 00000-0 34102-3 0 9994
2 40377 99.0879 126.4036 0097544 126.8041 234.2195 15.31603852420059
FIREBIRD FU4
1 40378U 15003C 22244.21515879 .00012560 00000-0 35649-3 0 9997
2 40378 99.0882 126.3366 0097468 127.2454 233.7723 15.31701620420016
GRIFEX
1 40379U 15003D 22244.16458732 .00006958 00000-0 24097-3 0 9995
2 40379 99.1015 111.3339 0113055 172.4519 187.8449 15.24342796419159
XW-2A
1 40903U 15049E 22244.79726293 .00016710 00000-0 23907-3 0 9993
2 40903 97.1714 303.5626 0009049 185.6508 311.9039 15.56235196391122
XW-2C
1 40906U 15049H 22244.86518584 .00003296 00000-0 15727-3 0 9992
2 40906 97.4951 247.7073 0015625 92.7711 25.2612 15.19679797384523
XW-2D
1 40907U 15049J 22244.85368265 .00003741 00000-0 17435-3 0 9994
2 40907 97.4940 247.7468 0014922 88.6052 31.0036 15.20419716384576
LILACSAT-2
1 40908U 15049K 22244.86535049 .00001908 00000-0 10218-3 0 9997
2 40908 97.5198 244.7202 0016929 110.0966 10.8134 15.16133693384069
XW-2E
1 40909U 15049L 22244.83172660 .00006105 00000-0 24977-3 0 9992
2 40909 97.4657 252.4330 0013699 70.8927 51.8325 15.24619142385041
XW-2F
1 40910U 15049M 22244.85179491 .00006084 00000-0 25281-3 0 9990
2 40910 97.4736 251.6066 0014709 71.5913 51.0895 15.24082539384816
XW-2B
1 40911U 15049N 22244.88406760 .00003671 00000-0 17175-3 0 9998
2 40911 97.4928 248.3513 0014831 89.3789 27.2539 15.20299745384460
DCBB
1 40912U 15049P 22244.82812705 .00007182 00000-0 27017-3 0 9990
2 40912 97.4371 255.9303 0013683 40.8323 84.0479 15.27358520385407
TW-1A
1 40928U 15051D 22244.88696822 .00041151 00000-0 40830-3 0 9998
2 40928 97.0339 267.1639 0009300 100.7173 21.6297 15.65630038390175
IO-86
1 40931U 15052B 22244.69534954 .00000802 00000-0 22352-4 0 9997
2 40931 6.0018 345.2314 0012496 170.6385 189.3965 14.76848998374636
AO-85
1 40967U 15058D 22243.51289541 .00000316 00000-0 51554-4 0 4666
2 40967 64.7731 203.5535 0185539 176.1379 184.1213 14.77658224 71750
ATHENOXAT-1
1 41168U 15077C 22244.72940603 .00008747 00000-0 33371-3 0 9991
2 41168 14.9925 244.3535 0008642 236.3557 292.2440 15.22486967371946
ChubuSat-2
1 41338U 16012B 22244.45076211 .00001339 00000-0 94117-4 0 9991
2 41338 31.0021 259.9213 0013348 187.2182 172.8263 15.01584316358916
ChubuSat-3
1 41339U 16012C 22244.46229538 .00000918 00000-0 62352-4 0 9993
2 41339 31.0112 256.7644 0013131 196.0811 284.2859 15.01644134358912
Horyu-4
1 41340U 16012D 22244.32138236 .00001857 00000-0 12581-3 0 9995
2 41340 31.0033 234.4673 0013299 235.6801 124.2576 15.03664220359151
e-st@r-II
1 41459U 16025D 22244.74691436 .00005213 00000-0 22118-3 0 9999
2 41459 98.1924 55.6646 0141307 10.6358 349.7814 15.14937896349048
AAUSAT4
1 41460U 16025E 22244.47633047 .00009089 00000-0 33205-3 0 9999
2 41460 98.1845 62.3128 0120178 345.0118 14.7603 15.21742565349493
LO-87
1 41557U 16033B 22244.77165789 .00009001 00000-0 25690-3 0 9994
2 41557 97.3902 342.6888 0011833 103.6344 55.7723 15.36197566349093
NuSat2
1 41558U 16033C 22244.76929293 .00009119 00000-0 24506-3 0 9997
2 41558 97.4117 348.8162 0011315 94.3085 57.0178 15.38074345349370
Lapan A3
1 41603U 16040E 22244.89140551 .00000733 00000-0 36171-4 0 9997
2 41603 97.2008 278.5765 0011490 249.4169 187.7956 15.20836546343656
Pratham
1 41783U 16059A 22244.52934943 .00000276 00000-0 61983-4 0 9993
2 41783 97.9079 283.0170 0032043 294.6143 65.1722 14.63411737316750
TY-1
1 41844U 16066D 22244.82143813 .00008632 00000-0 28152-3 0 9994
2 41844 97.3889 256.5606 0013176 26.3881 90.4761 15.31959837323290
CAS-2T
1 41847U 16066G 22244.77801255 .00000230 00000-0 44994-4 0 9991
2 41847 98.5449 309.3446 0363037 341.7421 17.1007 14.38705013305329
EO-88
1 42017U 17008BX 22244.41144225 .00012070 00000-0 33950-3 0 9990
2 42017 97.2621 309.5079 0003736 352.4304 7.6883 15.36629210308734
CAS-4B
1 42759U 17034B 22244.54867059 .00001780 00000-0 11371-3 0 9992
2 42759 43.0176 273.1237 0008744 40.4328 92.0118 15.12333067287873
CAS-4A
1 42761U 17034D 22244.58172446 .00001583 00000-0 10232-3 0 9994
2 42761 43.0169 271.6757 0008938 44.0413 97.3682 15.12415384287886
